Regional Weather Roundup
Issued by NWS

Current Version | Previous Version | Text Only | Print | Product List | Glossary On
Versions: 1 2 3 4 5 6 7 8 9 10 11 12 13 14 15 16 17 18 19 20 21 22 23 24 25 26 27 28 29 30 31 32 33 34 35 36 37 38 39 40 41 42 43 44 45 46 47 48 49 50
000
ASCA44 KEWX 011320
RWRMX

LATIN AMERICA AND CARIBBEAN REGIONAL WEATHER ROUNDUP
NATIONAL WEATHER SERVICE AUSTIN/SAN ANTONIO TX
700 AM CST SUN MAR 01 2015

NOTE: "FAIR" INDICATED FEW OR NO CLOUDS BELOW 12,000 FEET WITH NO
SIGNIFICANT WEATHER AND/OR OBSTRUCTIONS TO VISIBILITY.

BAJA CALIFORNIA

CITY           SKY/WX    TMP DP  RH WIND       PRES   REMARKS
LA PAZ         MOCLDY    61  54  77 S3        30.02
S.J. DEL CABO  PTCLDY    61  50  67 SW7       29.99
TIJUANA        RAIN      52  50  93 E3        29.94R

NORTHWESTERN MEXICO

CITY           SKY/WX    TMP DP  RH WIND       PRES   REMARKS
CULIACAN       MOCLDY    63  59  88 CALM      30.02
DURANGO        CLEAR     36  21  55 CALM      30.28

NORTHEASTERN MEXICO

CITY           SKY/WX    TMP DP  RH WIND       PRES   REMARKS
CHIHUAHUA      MOCLDY    46  27  46 S10       30.13  WCI  41
MATAMOROS      DRZL/FOG  48  48 100 NW6       30.19  VSB 1/2 WCI  46
MONTERREY      FOG       46  45  93 CALM      30.15R VSB 1
REYNOSA        CLOUDY    45  43  93 NW9       30.16  FOG     WCI  40
SALTILLO       PTCLDY    64  43  45 S17       30.19
TORREON        PTCLDY    54  43  66 CALM      30.12R
CD. VICTORIA   MOCLDY    50  45  81 W3        30.16

WESTERN MEXICO

CITY           SKY/WX    TMP DP  RH WIND       PRES   REMARKS
AGUASCALIENTES CLEAR     43  28  56 N6        30.32  WCI  39
COLIMA         CLEAR     70  41  35 CALM      30.07R
DEL BAJIO      CLEAR     48  34  57 CALM      30.36
GUADALAJARA    CLEAR     43  34  70 CALM      30.25
MAZATLAN       PTCLDY    55  52  88 NE8       29.98R
P. VALLARTA    PTCLDY    63  61  94 NE5       29.98R
URUAPAN        CLEAR     50  46  87 CALM      30.25
ZACATECAS      CLEAR     39  18  41 CALM      30.32R

CENTRAL MEXICO

CITY           SKY/WX    TMP DP  RH WIND       PRES   REMARKS
CUERNAVACA     CLEAR     63  39  42 CALM      30.21
MEXICO CITY    CLEAR     54  37  54 CALM      30.37R
MORELIA        CLEAR     43  34  70 CALM      30.30
POZA RICA      MOCLDY    63  59  88 CALM      30.17
PUEBLA         CLEAR     41  36  81 NW7       30.39R WCI  36
QUERETARO      CLEAR     43  36  75 CALM      30.35R
S. LUIS POTOSI FOG       39  39 100 CALM      30.30R VSB 1/8
TAMPICO        CLOUDY    61  57  88 NE9       30.15R
TOLUCA         CLEAR     36  30  80 CALM      30.44R

SOUTHERN MEXICO

CITY           SKY/WX    TMP DP  RH WIND       PRES   REMARKS
ACAPULCO       CLEAR     72  61  68 NW3       29.96R
B. DE HUATULCO CLEAR     72  66  83 CALM      30.01
OAXACA         CLEAR     52  46  82 N7        30.32
P. ESCONDIDO   CLEAR     72  63  73 E14       30.09
VERACRUZ       CLOUDY    66  63  88 N5        30.14R
ZIHUATANEJO    PTCLDY    64  59  82 CALM      29.98

YUCATAN PENINSULA

CITY           SKY/WX    TMP DP  RH WIND       PRES   REMARKS
CAMPECHE       PTCLDY    73  72  94 E9        30.10R FOG
CANCUN         MOSUNNY   77  73  88 E5        30.16R
CHETUMAL       MOSUNNY   75  64  69 CALM      30.11R
CD. DEL CARMEN MOCLDY    77  72  83 E10       30.10
COZUMEL        MOSUNNY   72  72 100 E3        30.16R
MERIDA         MOCLDY    72  70  94 E8        30.16R
MINATITLAN     FOG       70  70 100 CALM      30.07  VSB 1
TAPACHULA      CLEAR     75  66  73 CALM      29.97R
TUX. GUTIERREZ CLEAR     59  57  94 SW7       30.12R
VILLAHERMOSA   CLOUDY    72  72 100 CALM      30.11  FOG

CENTRAL AMERICA

CITY           SKY/WX    TMP DP  RH WIND       PRES   REMARKS
BELIZE CITY    MOSUNNY   79  72  78 E8        30.10R
MANAGUA        MOSUNNY   75  68  78 E5        29.94R

CARIBBEAN

CITY           SKY/WX    TMP DP  RH WIND       PRES   REMARKS
ARUBA          MOSUNNY   82  72  69 E23       30.00S
KINGSTON       MOSUNNY   81  70  69 W3        30.09R
NASSAU         MOSUNNY   75  70  83 E9        30.30R
SAN JUAN       PTSUNNY   79  70  73 E9        30.16R
SANTO DOMINGO  MOSUNNY   77  73  88 NE6       30.15R
ST. CROIX      MOSUNNY   81  64  57 E20G26    30.13R
ST. KITTS      MOSUNNY   82  70  65 NE20      30.12S
ST. MAARTEN    MOSUNNY   79  68  69 E15       30.15R
ST. THOMAS     PTSUNNY   79  66  65 NE13G23   30.15

$$




USA.gov is the U.S. government's official web portal to all federal, state and local government web resources and services.